Watford City, ND

10:34 PM CDT on May 28, 2017 (GMT -0500)
Watford City

Weather History for KS25 - May, 2013

Change the Weather History Date:

Monday, May 13, 2013

  Actual Average (KISN) Record (KISN)
Temperature  
Mean Temperature 72 °F -  
Max Temperature 87 °F 68 °F 95 °F (2001)
Min Temperature 57 °F 38 °F 17 °F (1899)
Cooling Degree Days 7    
Growing Degree Days 22 (Base 50)    
Moisture  
Dew Point 40 °F    
Average Humidity 33    
Maximum Humidity 55    
Minimum Humidity 17    
Precipitation  
Precipitation 0.00 in - - ()
Sea Level Pressure  
Sea Level Pressure 29.73 in    
Wind  
Wind Speed 13 mph (West)    
Max Wind Speed 29 mph    
Max Gust Speed 38 mph    
Visibility 9 miles    
Events      
Averages and records for this station are not official NWS values.
T = Trace of Precipitation, MM = Missing Value Source: NWS Daily Summary

Daily Weather History Graph

Daily Weather History Graph

Search for Another Location

Airport or City:

Trip Planner

Search our weather history database for the weather conditions in past years. The results will help you decide how hot, cold, wet, or windy it might be!

Date:

Astronomy

May. 13, 2013 Rise Set
Actual Time 6:17 AM CDT 9:22 PM CDT
Civil Twilight 5:40 AM CDT 9:59 PM CDT
Nautical Twilight 4:53 AM CDT 10:46 PM CDT
Astronomical Twilight 3:55 AM CDT 11:45 PM CDT
Moon 9:03 AM CDT (5/13) No Moon Set
Length of Visible Light 16h 18m
Length of Day
15h 05m
Waxing Crescent, 12% of the Moon is Illuminated
May 13
Waxing Crescent
May 17
First Quarter
May 24
Full
May 31
Last Quarter
Jun 8
New

Hourly Weather History & Observations

Time (CDT) Temp. Dew Point Humidity Pressure Visibility Wind Dir Wind Speed Gust Speed Precip Events Conditions
12:15 AM 68.0 °F 35.6 °F 30% 29.73 in 10.0 mi SSW 11.5 mph - N/A   Clear
12:35 AM 66.2 °F 35.6 °F 32% 29.73 in 10.0 mi SSW 10.4 mph - N/A   Clear
12:55 AM 64.4 °F 35.6 °F 34% 29.73 in 9.0 mi SSW 9.2 mph - N/A   Clear
1:15 AM 64.4 °F 37.4 °F 37% 29.72 in 10.0 mi SSW 8.1 mph - N/A   Clear
1:35 AM 62.6 °F 37.4 °F 39% 29.72 in 10.0 mi SW 6.9 mph - N/A   Clear
1:55 AM 60.8 °F 39.2 °F 45% 29.72 in 10.0 mi SW 9.2 mph - N/A   Clear
2:15 AM 59.0 °F 39.2 °F 48% 29.72 in 10.0 mi SW 6.9 mph - N/A   Clear
2:35 AM 59.0 °F 39.2 °F 48% 29.71 in 10.0 mi WSW 6.9 mph - N/A   Clear
2:55 AM 59.0 °F 39.2 °F 48% 29.71 in 10.0 mi SW 11.5 mph - N/A   Clear
3:15 AM 59.0 °F 39.2 °F 48% 29.71 in 10.0 mi SW 10.4 mph - N/A   Clear
3:35 AM 57.2 °F 39.2 °F 51% 29.71 in 10.0 mi SW 10.4 mph - N/A   Clear
3:55 AM 57.2 °F 41.0 °F 55% 29.71 in 10.0 mi SW 12.7 mph - N/A   Clear
4:15 AM 59.0 °F 41.0 °F 51% 29.71 in 10.0 mi SW 12.7 mph - N/A   Clear
4:35 AM 59.0 °F 41.0 °F 51% 29.71 in 10.0 mi SW 11.5 mph - N/A   Clear
4:55 AM 59.0 °F 41.0 °F 51% 29.71 in 10.0 mi SW 10.4 mph - N/A   Clear
5:15 AM 57.2 °F 41.0 °F 55% 29.72 in 10.0 mi SW 12.7 mph - N/A   Clear
5:35 AM 57.2 °F 41.0 °F 55% 29.72 in 10.0 mi SW 12.7 mph - N/A   Clear
5:55 AM 57.2 °F 41.0 °F 55% 29.73 in 10.0 mi SW 11.5 mph - N/A   Clear
6:15 AM 59.0 °F 41.0 °F 51% 29.73 in 10.0 mi WSW 11.5 mph 17.3 mph N/A   Clear
6:35 AM 62.6 °F 41.0 °F 45% 29.73 in 10.0 mi West 13.8 mph - N/A   Clear
7:15 AM 64.4 °F 41.0 °F 42% 29.75 in 10.0 mi West 13.8 mph - N/A   Clear
7:35 AM 66.2 °F 41.0 °F 40% 29.76 in 10.0 mi West 13.8 mph - N/A   Clear
7:55 AM 66.2 °F 42.8 °F 43% 29.76 in 10.0 mi West 16.1 mph 21.9 mph N/A   Clear
8:15 AM 68.0 °F 42.8 °F 40% 29.76 in 10.0 mi West 18.4 mph 24.2 mph N/A   Clear
8:35 AM 69.8 °F 42.8 °F 38% 29.77 in 10.0 mi West 16.1 mph 26.5 mph N/A   Clear
8:55 AM 69.8 °F 42.8 °F 38% 29.77 in 10.0 mi West 13.8 mph 24.2 mph N/A   Clear
9:15 AM 71.6 °F 42.8 °F 35% 29.78 in 10.0 mi WNW 17.3 mph 24.2 mph N/A   Clear
9:35 AM 71.6 °F 44.6 °F 38% 29.78 in 10.0 mi WNW 16.1 mph 21.9 mph N/A   Clear
9:55 AM 73.4 °F 42.8 °F 33% 29.79 in 10.0 mi WNW 12.7 mph - N/A   Clear
10:15 AM 73.4 °F 42.8 °F 33% 29.78 in 9.0 mi WNW 16.1 mph 21.9 mph N/A   Clear
10:35 AM 75.2 °F 42.8 °F 31% 29.78 in 10.0 mi West 16.1 mph 23.0 mph N/A   Clear
10:55 AM 75.2 °F 42.8 °F 31% 29.78 in 10.0 mi WNW 17.3 mph 24.2 mph N/A   Clear
11:15 AM 77.0 °F 42.8 °F 29% 29.78 in 9.0 mi WNW 13.8 mph 21.9 mph N/A   Clear
11:35 AM 77.0 °F 41.0 °F 28% 29.78 in 10.0 mi WNW 18.4 mph 23.0 mph N/A   Clear
11:55 AM 80.6 °F 39.2 °F 23% 29.78 in 5.0 mi WNW 19.6 mph 38.0 mph N/A   Haze
12:15 PM 82.4 °F 39.2 °F 21% 29.78 in 5.0 mi WNW 24.2 mph 33.4 mph N/A   Haze
12:35 PM 82.4 °F 37.4 °F 20% 29.79 in 7.0 mi WNW 24.2 mph 33.4 mph N/A   Clear
12:55 PM 82.4 °F 39.2 °F 21% 29.79 in 8.0 mi WNW 25.3 mph 35.7 mph N/A   Clear
1:15 PM 82.4 °F 39.2 °F 21% 29.78 in 8.0 mi WNW 24.2 mph 36.8 mph N/A   Clear
1:35 PM 84.2 °F 37.4 °F 19% 29.78 in 4.0 mi WNW 26.5 mph 38.0 mph N/A   Haze
1:55 PM 84.2 °F 39.2 °F 20% 29.77 in 9.0 mi WNW 19.6 mph 31.1 mph N/A   Clear
2:15 PM 84.2 °F 37.4 °F 19% 29.76 in 8.0 mi WNW 24.2 mph 34.5 mph N/A   Clear
2:35 PM 86.0 °F 37.4 °F 18% 29.76 in 10.0 mi WNW 24.2 mph 36.8 mph N/A   Clear
3:35 PM 86.0 °F 39.2 °F 19% 29.75 in 10.0 mi WNW 17.3 mph 33.4 mph N/A   Clear
3:55 PM 86.0 °F 39.2 °F 19% 29.75 in 9.0 mi WNW 21.9 mph 31.1 mph N/A   Clear
4:15 PM 86.0 °F 39.2 °F 19% 29.74 in 10.0 mi West 18.4 mph 35.7 mph N/A   Clear
4:35 PM 86.0 °F 39.2 °F 19% 29.73 in 10.0 mi WNW 21.9 mph 27.6 mph N/A   Clear
4:55 PM 86.0 °F 39.2 °F 19% 29.73 in 8.0 mi West 19.6 mph 33.4 mph N/A   Clear
5:15 PM 87.8 °F 37.4 °F 17% 29.72 in 9.0 mi West 28.8 mph 35.7 mph N/A   Clear
5:35 PM 86.0 °F 39.2 °F 19% 29.71 in 8.0 mi WNW 19.6 mph 31.1 mph N/A   Partly Cloudy
5:55 PM 86.0 °F 41.0 °F 20% 29.71 in 10.0 mi West 18.4 mph 29.9 mph N/A   Clear
6:35 PM 87.8 °F 41.0 °F 19% 29.69 in 10.0 mi WNW 19.6 mph 26.5 mph N/A   Clear
7:15 PM 87.8 °F 37.4 °F 17% 29.67 in 10.0 mi West 16.1 mph 32.2 mph N/A   Clear
7:35 PM 86.0 °F 37.4 °F 18% 29.67 in 10.0 mi WNW 16.1 mph 20.7 mph N/A   Clear
7:55 PM 86.0 °F 39.2 °F 19% 29.66 in 10.0 mi WNW 12.7 mph 17.3 mph N/A   Clear
8:15 PM 84.2 °F 39.2 °F 20% 29.65 in 10.0 mi WNW 8.1 mph - N/A   Clear
8:35 PM 82.4 °F 41.0 °F 23% 29.64 in 10.0 mi SW 6.9 mph - N/A   Clear
8:55 PM 80.6 °F 42.8 °F 26% 29.64 in 10.0 mi WSW 6.9 mph - N/A   Clear
9:15 PM 77.0 °F 41.0 °F 28% 29.64 in 9.0 mi SSW 3.5 mph - N/A   Clear